Вернуться в каталог

BREEZE-M DEB

АктивенHEO
NORAD 39325·DEBRIS·🇷🇺 Russia

Запущен Mar 14, 2008 с Baikonur Cosmodrome

Loading…

Ближайшие Пролёты (ближайшие 24 часа)

TLE

СвежийSource: Space-Track

Эпоха: Sep 10, 2026, 18:44 UTC

1 39325U 08011DC  26253.78116421  .00257240  00000-0  13432+0 0  9992
2 39325  49.7465  53.7284 6517198 126.1756 313.0695  3.25484769 13901

Отслеживайте BREEZE-M DEB в реальном времени с AllMySat

Download on the App Store